Location: Prostejov
(49.4670°N, 17.1170°E)
Time: 02:24:28
(UTC+01:00)

ISS - Pass Details

Date: 02 October 2020
Orbit: 417 x 420 km, 51.6° (Epoch: 25 October)

Event Time Altitude Azimuth Distance (km) Brightness Sun altitude
Rises 20:19:13 0° 289° (WNW) 2,370 1.8 -18.8°
Reaches altitude 10° 20:21:24 10° 281° (W) 1,504 0.3 -19.2°
Maximum altitude 20:24:35 39° 211° (SSW) 642 -2.8 -19.7°
Enters shadow 20:24:57 38° 193° (SSW) 660 -2.9 -19.7°
